Time,TemperatureF,DewpointF,PressureIn,WindDirection,WindDirectionDegrees,WindSpeedMPH,WindSpeedGustMPH,Humidity,HourlyPrecipIn,Conditions,Clouds,dailyrainin,SoftwareType,DateUTC
2013-04-19 04:12:00,75.0,58.0,29.58,South,186,8.0,-999.0,55,-99.99,,,-99.99,,2013-04-19 08:12:00,
2013-04-19 04:22:00,75.0,58.0,29.58,South,186,8.0,-999.0,55,-99.99,,,-99.99,,2013-04-19 08:22:00,
2013-04-19 04:33:00,73.0,58.0,29.57,SSW,205,5.0,-999.0,59,-99.99,,,-99.99,,2013-04-19 08:33:00,
2013-04-19 04:42:00,72.0,59.0,29.57,SSW,196,8.0,-999.0,64,-99.99,,,-99.99,,2013-04-19 08:42:00,
2013-04-19 04:52:00,72.0,59.0,29.57,SSW,196,8.0,-999.0,64,-99.99,,,-99.99,,2013-04-19 08:52:00,
2013-04-19 05:01:00,71.0,60.0,29.58,SW,215,7.0,-999.0,68,-99.99,,,-99.99,,2013-04-19 09:01:00,
2013-04-19 05:12:00,71.0,60.0,29.58,SW,215,7.0,-999.0,68,-99.99,,,-99.99,,2013-04-19 09:12:00,
2013-04-19 05:21:00,69.0,61.0,29.57,SE,146,4.0,-999.0,76,-99.99,,,-99.99,,2013-04-19 09:21:00,
2013-04-19 05:32:00,68.0,62.0,29.57,SW,220,5.0,-999.0,80,-99.99,,,-99.99,,2013-04-19 09:32:00,
2013-04-19 05:43:00,68.0,62.0,29.57,SW,220,5.0,-999.0,80,-99.99,,,-99.99,,2013-04-19 09:43:00,
2013-04-19 05:52:00,66.0,61.0,29.56,SSW,208,4.0,-999.0,85,-99.99,,,-99.99,,2013-04-19 09:52:00,
2013-04-19 06:02:00,66.0,62.0,29.57,SW,227,3.0,-999.0,87,-99.99,,,-99.99,,2013-04-19 10:02:00,
2013-04-19 06:13:00,65.0,62.0,29.56,SW,235,2.0,-999.0,89,-99.99,,,-99.99,,2013-04-19 10:13:00,
2013-04-19 06:23:00,65.0,62.0,29.56,SW,235,2.0,-999.0,89,-99.99,,,-99.99,,2013-04-19 10:23:00,
2013-04-19 06:33:00,66.0,62.0,29.56,SW,214,7.0,-999.0,88,-99.99,,,-99.99,,2013-04-19 10:33:00,
2013-04-19 06:42:00,66.0,62.0,29.56,SW,221,8.0,-999.0,88,-99.99,,,-99.99,,2013-04-19 10:42:00,
2013-04-19 06:52:00,66.0,62.0,29.56,SW,221,8.0,-999.0,88,-99.99,,,-99.99,,2013-04-19 10:52:00,
2013-04-19 07:03:00,61.0,55.0,29.59,WNW,293,11.0,-999.0,82,-99.99,,,-99.99,,2013-04-19 11:03:00,
2013-04-19 07:11:00,61.0,55.0,29.59,WNW,293,11.0,-999.0,82,-99.99,,,-99.99,,2013-04-19 11:11:00,
2013-04-19 07:22:00,56.0,53.0,29.63,West,273,11.0,-999.0,90,-99.99,,,-99.99,,2013-04-19 11:22:00,
2013-04-19 07:32:00,54.0,51.0,29.65,West,271,9.0,-999.0,90,-99.99,,,-99.99,,2013-04-19 11:32:00,
2013-04-19 07:42:00,54.0,51.0,29.65,West,271,9.0,-999.0,90,-99.99,,,-99.99,,2013-04-19 11:42:00,
2013-04-19 07:52:00,53.0,50.0,29.67,West,259,13.0,-999.0,90,-99.99,,,-99.99,,2013-04-19 11:52:00,
2013-04-19 08:03:00,51.0,48.0,29.70,WNW,291,11.0,-999.0,90,-99.99,,,-99.99,,2013-04-19 12:03:00,
2013-04-19 08:12:00,50.0,47.0,29.70,SW,229,8.0,-999.0,90,-99.99,,,-99.99,,2013-04-19 12:12:00,
2013-04-19 08:22:00,50.0,47.0,29.70,SW,229,8.0,-999.0,90,-99.99,,,-99.99,,2013-04-19 12:22:00,
2013-04-19 08:32:00,49.0,46.0,29.70,West,275,9.0,-999.0,90,-99.99,,,-99.99,,2013-04-19 12:32:00,
2013-04-19 08:42:00,49.0,46.0,29.70,West,275,9.0,-999.0,90,-99.99,,,-99.99,,2013-04-19 12:42:00,
2013-04-19 08:53:00,48.0,45.0,29.72,West,261,11.0,-999.0,90,-99.99,,,-99.99,,2013-04-19 12:53:00,
2013-04-19 09:01:00,48.0,45.0,29.73,WNW,291,8.0,-999.0,90,-99.99,,,-99.99,,2013-04-19 13:01:00,
2013-04-19 09:11:00,47.0,44.0,29.73,WNW,293,9.0,-999.0,90,-99.99,,,-99.99,,2013-04-19 13:11:00,
2013-04-19 09:22:00,47.0,44.0,29.73,WNW,293,9.0,-999.0,90,-99.99,,,-99.99,,2013-04-19 13:22:00,
2013-04-19 09:32:00,47.0,44.0,29.75,West,279,12.0,-999.0,90,-99.99,,,-99.99,,2013-04-19 13:32:00,
2013-04-19 09:42:00,47.0,44.0,29.75,West,279,12.0,-999.0,90,-99.99,,,-99.99,,2013-04-19 13:42:00,
2013-04-19 09:52:00,46.0,44.0,29.78,WNW,301,12.0,-999.0,91,-99.99,,,-99.99,,2013-04-19 13:52:00,
2013-04-19 10:02:00,46.0,44.0,29.80,WNW,288,11.0,-999.0,91,-99.99,,,-99.99,,2013-04-19 14:02:00,
2013-04-19 10:11:00,45.0,42.0,29.80,West,265,10.0,-999.0,90,-99.99,,,-99.99,,2013-04-19 14:11:00,
2013-04-19 10:22:00,45.0,42.0,29.80,West,265,10.0,-999.0,90,-99.99,,,-99.99,,2013-04-19 14:22:00,
2013-04-19 10:32:00,45.0,43.0,29.81,West,278,10.0,-999.0,91,-99.99,,,-99.99,,2013-04-19 14:32:00,
2013-04-19 10:43:00,45.0,43.0,29.81,West,278,10.0,-999.0,91,-99.99,,,-99.99,,2013-04-19 14:43:00,
2013-04-19 10:52:00,44.0,41.0,29.82,WNW,292,11.0,-999.0,90,-99.99,,,-99.99,,2013-04-19 14:52:00,
2013-04-19 11:02:00,44.0,41.0,29.83,WNW,289,12.0,-999.0,88,-99.99,,,-99.99,,2013-04-19 15:02:00,
2013-04-19 11:12:00,44.0,40.0,29.84,WNW,291,9.0,-999.0,87,-99.99,,,-99.99,,2013-04-19 15:12:00,
2013-04-19 11:22:00,44.0,40.0,29.84,WNW,291,9.0,-999.0,87,-99.99,,,-99.99,,2013-04-19 15:22:00,
2013-04-19 11:33:00,44.0,40.0,29.84,West,272,8.0,-999.0,86,-99.99,,,-99.99,,2013-04-19 15:33:00,
2013-04-19 11:43:00,44.0,40.0,29.84,West,272,8.0,-999.0,86,-99.99,,,-99.99,,2013-04-19 15:43:00,
2013-04-19 11:52:00,44.0,40.0,29.84,West,279,8.0,-999.0,85,-99.99,,,-99.99,,2013-04-19 15:52:00,
2013-04-19 12:03:00,44.0,40.0,29.85,WNW,285,6.0,-999.0,86,-99.99,,,-99.99,,2013-04-19 16:03:00,
2013-04-19 12:13:00,45.0,40.0,29.85,WSW,257,6.0,-999.0,84,-99.99,,,-99.99,,2013-04-19 16:13:00,
2013-04-19 12:23:00,45.0,40.0,29.85,WSW,257,6.0,-999.0,84,-99.99,,,-99.99,,2013-04-19 16:23:00,
2013-04-19 12:32:00,45.0,40.0,29.85,West,264,7.0,-999.0,82,-99.99,,,-99.99,,2013-04-19 16:32:00,
2013-04-19 12:42:00,46.0,39.0,29.86,WNW,290,10.0,-999.0,76,-99.99,,,-99.99,,2013-04-19 16:42:00,
2013-04-19 12:53:00,46.0,39.0,29.86,WNW,290,10.0,-999.0,76,-99.99,,,-99.99,,2013-04-19 16:53:00,
2013-04-19 13:02:00,46.0,39.0,29.86,West,262,10.0,-999.0,77,-99.99,,,-99.99,,2013-04-19 17:02:00,
2013-04-19 13:12:00,46.0,39.0,29.86,West,262,10.0,-999.0,77,-99.99,,,-99.99,,2013-04-19 17:12:00,
2013-04-19 13:22:00,46.0,39.0,29.87,WSW,256,8.0,-999.0,77,-99.99,,,-99.99,,2013-04-19 17:22:00,
2013-04-19 13:33:00,47.0,39.0,29.87,West,259,11.0,-999.0,75,-99.99,,,-99.99,,2013-04-19 17:33:00,
2013-04-19 13:42:00,47.0,39.0,29.87,West,259,11.0,-999.0,75,-99.99,,,-99.99,,2013-04-19 17:42:00,
2013-04-19 13:52:00,47.0,40.0,29.88,WNW,282,9.0,-999.0,77,-99.99,,,-99.99,,2013-04-19 17:52:00,
2013-04-19 14:02:00,49.0,40.0,29.88,West,278,11.0,-999.0,72,-99.99,,,-99.99,,2013-04-19 18:02:00,
2013-04-19 14:13:00,49.0,40.0,29.88,West,278,11.0,-999.0,72,-99.99,,,-99.99,,2013-04-19 18:13:00,
2013-04-19 14:23:00,47.0,40.0,29.87,NW,304,10.0,-999.0,76,-99.99,,,-99.99,,2013-04-19 18:23:00,
2013-04-19 14:33:00,47.0,39.0,29.88,WNW,294,8.0,-999.0,75,-99.99,,,-99.99,,2013-04-19 18:33:00,
2013-04-19 14:43:00,47.0,39.0,29.88,WNW,294,8.0,-999.0,75,-99.99,,,-99.99,,2013-04-19 18:43:00,
2013-04-19 14:52:00,47.0,39.0,29.88,WNW,291,8.0,-999.0,74,-99.99,,,-99.99,,2013-04-19 18:52:00,
2013-04-19 15:02:00,47.0,39.0,29.88,West,281,11.0,-999.0,73,-99.99,,,-99.99,,2013-04-19 19:02:00,
2013-04-19 15:11:00,47.0,39.0,29.88,West,281,11.0,-999.0,73,-99.99,,,-99.99,,2013-04-19 19:11:00,
2013-04-19 15:21:00,46.0,38.0,29.89,WNW,292,9.0,-999.0,74,-99.99,,,-99.99,,2013-04-19 19:21:00,
2013-04-19 15:32:00,47.0,38.0,29.89,WSW,257,10.0,-999.0,70,-99.99,,,-99.99,,2013-04-19 19:32:00,
2013-04-19 15:42:00,47.0,38.0,29.89,WSW,257,10.0,-999.0,70,-99.99,,,-99.99,,2013-04-19 19:42:00,
2013-04-19 15:52:00,48.0,37.0,29.89,West,260,10.0,-999.0,66,-99.99,,,-99.99,,2013-04-19 19:52:00,
2013-04-19 16:02:00,48.0,37.0,29.90,WNW,297,7.0,-999.0,65,-99.99,,,-99.99,,2013-04-19 20:02:00,
2013-04-19 16:11:00,48.0,37.0,29.90,WNW,297,7.0,-999.0,65,-99.99,,,-99.99,,2013-04-19 20:11:00,
2013-04-19 16:22:00,48.0,37.0,29.91,West,266,12.0,-999.0,65,-99.99,,,-99.99,,2013-04-19 20:22:00,
2013-04-19 16:32:00,48.0,36.0,29.90,NW,311,13.0,-999.0,64,-99.99,,,-99.99,,2013-04-19 20:32:00,
2013-04-19 16:42:00,49.0,37.0,29.91,NW,309,10.0,-999.0,63,-99.99,,,-99.99,,2013-04-19 20:42:00,
2013-04-19 16:52:00,49.0,37.0,29.91,NW,309,10.0,-999.0,63,-99.99,,,-99.99,,2013-04-19 20:52:00,
2013-04-19 17:01:00,48.0,36.0,29.91,West,265,9.0,-999.0,63,-99.99,,,-99.99,,2013-04-19 21:01:00,
2013-04-19 17:11:00,49.0,37.0,29.91,West,261,10.0,-999.0,62,-99.99,,,-99.99,,2013-04-19 21:11:00,
2013-04-19 17:21:00,49.0,37.0,29.91,West,261,10.0,-999.0,62,-99.99,,,-99.99,,2013-04-19 21:21:00,
2013-04-19 17:32:00,49.0,36.0,29.91,WNW,292,10.0,-999.0,60,-99.99,,,-99.99,,2013-04-19 21:32:00,
2013-04-19 17:42:00,49.0,36.0,29.91,WNW,292,10.0,-999.0,60,-99.99,,,-99.99,,2013-04-19 21:42:00,
2013-04-19 17:53:00,49.0,35.0,29.91,WSW,244,9.0,-999.0,59,-99.99,,,-99.99,,2013-04-19 21:53:00,
2013-04-19 18:02:00,49.0,35.0,29.91,WSW,244,9.0,-999.0,59,-99.99,,,-99.99,,2013-04-19 22:02:00,
2013-04-19 18:12:00,49.0,35.0,29.91,WSW,244,9.0,-999.0,59,-99.99,,,-99.99,,2013-04-19 22:12:00,
2013-04-19 18:23:00,48.0,35.0,29.93,West,262,9.0,-999.0,60,-99.99,,,-99.99,,2013-04-19 22:23:00,
2013-04-19 18:33:00,48.0,34.0,29.94,West,277,7.0,-999.0,59,-99.99,,,-99.99,,2013-04-19 22:33:00,
2013-04-19 18:42:00,48.0,34.0,29.94,West,277,7.0,-999.0,59,-99.99,,,-99.99,,2013-04-19 22:42:00,
2013-04-19 18:52:00,48.0,35.0,29.95,West,268,9.0,-999.0,60,-99.99,,,-99.99,,2013-04-19 22:52:00,
2013-04-19 19:03:00,48.0,36.0,29.96,WNW,292,7.0,-999.0,63,-99.99,,,-99.99,,2013-04-19 23:03:00,
2013-04-19 19:11:00,48.0,36.0,29.96,WNW,292,7.0,-999.0,63,-99.99,,,-99.99,,2013-04-19 23:11:00,
2013-04-19 19:22:00,48.0,36.0,29.96,WNW,287,7.0,-999.0,64,-99.99,,,-99.99,,2013-04-19 23:22:00,
2013-04-19 19:32:00,47.0,36.0,29.96,WNW,296,5.0,-999.0,66,-99.99,,,-99.99,,2013-04-19 23:32:00,
2013-04-19 19:42:00,47.0,36.0,29.96,WNW,296,5.0,-999.0,66,-99.99,,,-99.99,,2013-04-19 23:42:00,
2013-04-19 19:53:00,47.0,36.0,29.96,WNW,286,7.0,-999.0,66,-99.99,,,-99.99,,2013-04-19 23:53:00,
2013-04-19 20:02:00,47.0,36.0,29.97,West,279,8.0,-999.0,65,-99.99,,,-99.99,,2013-04-20 00:02:00,
2013-04-19 20:12:00,47.0,36.0,29.97,West,279,8.0,-999.0,65,-99.99,,,-99.99,,2013-04-20 00:12:00,
2013-04-19 20:22:00,46.0,35.0,29.98,West,268,8.0,-999.0,65,-99.99,,,-99.99,,2013-04-20 00:22:00,
2013-04-19 20:32:00,46.0,35.0,29.98,West,261,11.0,-999.0,64,-99.99,,,-99.99,,2013-04-20 00:32:00,
2013-04-19 20:42:00,46.0,35.0,29.98,West,261,11.0,-999.0,64,-99.99,,,-99.99,,2013-04-20 00:42:00,
2013-04-19 20:52:00,46.0,35.0,30.00,West,281,7.0,-999.0,65,-99.99,,,-99.99,,2013-04-20 00:52:00,
2013-04-19 21:01:00,46.0,35.0,30.01,West,279,8.0,-999.0,66,-99.99,,,-99.99,,2013-04-20 01:01:00,
2013-04-19 21:11:00,46.0,35.0,30.01,West,279,8.0,-999.0,66,-99.99,,,-99.99,,2013-04-20 01:11:00,
2013-04-19 21:21:00,46.0,36.0,30.02,WNW,294,6.0,-999.0,67,-99.99,,,-99.99,,2013-04-20 01:21:00,
2013-04-19 21:32:00,46.0,36.0,30.02,WNW,293,8.0,-999.0,67,-99.99,,,-99.99,,2013-04-20 01:32:00,
2013-04-19 21:42:00,46.0,36.0,30.02,WNW,293,8.0,-999.0,67,-99.99,,,-99.99,,2013-04-20 01:42:00,
2013-04-19 21:52:00,45.0,36.0,30.03,WNW,295,6.0,-999.0,71,-99.99,,,-99.99,,2013-04-20 01:52:00,
2013-04-19 22:02:00,45.0,35.0,30.04,WNW,302,10.0,-999.0,68,-99.99,,,-99.99,,2013-04-20 02:02:00,
2013-04-19 22:11:00,45.0,35.0,30.05,West,279,8.0,-999.0,69,-99.99,,,-99.99,,2013-04-20 02:11:00,
2013-04-19 22:21:00,45.0,35.0,30.05,West,279,8.0,-999.0,69,-99.99,,,-99.99,,2013-04-20 02:21:00,
2013-04-19 22:32:00,45.0,35.0,30.06,WNW,294,9.0,-999.0,67,-99.99,,,-99.99,,2013-04-20 02:32:00,
2013-04-19 22:42:00,45.0,35.0,30.06,WNW,294,9.0,-999.0,67,-99.99,,,-99.99,,2013-04-20 02:42:00,
2013-04-19 22:52:00,44.0,34.0,30.07,WSW,248,8.0,-999.0,67,-99.99,,,-99.99,,2013-04-20 02:52:00,
2013-04-19 23:01:00,44.0,34.0,30.08,West,269,9.0,-999.0,67,-99.99,,,-99.99,,2013-04-20 03:01:00,
2013-04-19 23:11:00,44.0,34.0,30.08,West,269,9.0,-999.0,67,-99.99,,,-99.99,,2013-04-20 03:11:00,
2013-04-19 23:21:00,44.0,34.0,30.08,West,269,9.0,-999.0,67,-99.99,,,-99.99,,2013-04-20 03:21:00,
2013-04-19 23:33:00,44.0,34.0,30.09,West,279,7.0,-999.0,68,-99.99,,,-99.99,,2013-04-20 03:33:00,
2013-04-19 23:43:00,44.0,34.0,30.09,WNW,288,7.0,-999.0,67,-99.99,,,-99.99,,2013-04-20 03:43:00,
2013-04-19 23:52:00,44.0,34.0,30.09,WNW,288,7.0,-999.0,67,-99.99,,,-99.99,,2013-04-20 03:52:00,